* Astronomy

Members Login
Post Info
TOPIC: Asteroid (101955) 1999 RQ36


L

Posts: 131433
Date:
RE: Asteroid (101955) 1999 RQ36
Permalink  
 




__________________


L

Posts: 131433
Date:
Permalink  
 

101955 1999 RQ36
Earth Impact Table
Date Distance Width Sigma
Impact
Sigma
LOV
Stretch
LOV
Impact
Probability
Impact
Energy
Palermo
Scale
Torino
Scale
YYYY-MM-DD.DD (rEarth) (rEarth) (rEarth) (MT)
2169-09-24.72 0.10 0.00e+00 0.00 -0.42 4.54e+04 1.6e-05 2.70e+03 -2.73 n/a
2182-09-24.93 0.30 0.00e+00 0.00 -0.92 1.84e+03 2.6e-04 2.70e+03 -1.55 n/a
2182-09-24.93 0.60 0.00e+00 0.00 -0.92 1.51e+03 2.8e-04 2.70e+03 -1.52 n/a
2185-09-24.60 0.10 0.00e+00 0.00 -0.59 2.57e+04 2.6e-05 2.70e+03 -2.56 n/a
2189-09-24.62 0.50 0.00e+00 0.00 -0.50 3.80e+04 1.6e-05 2.70e+03 -2.78 n/a
2192-09-24.35 0.10 0.00e+00 0.00 -1.59 5.11e+03 4.4e-05 2.70e+03 -2.34 n/a
2195-09-24.34 0.10 0.00e+00 0.00 -0.75 2.99e+04 2.0e-05 2.70e+03 -2.70 n/a
2199-09-25.05 0.10 0.00e+00 0.00 +1.00 8.93e+03 5.4e-05 2.70e+03 -2.27 n/a


__________________


L

Posts: 131433
Date:
Permalink  
 

Title: Long-term impact risk for (101955) 1999 RQ36
Authors: Andrea Milani, Steven R. Chesley, Maria Eugenia Sansaturio, Fabrizio Bernardi, Giovanni B. Valsecchi, Oscar Arratia
(Version v2)

The potentially hazardous asteroid (101955) 1999 RQ36 has the possibility of collision with the Earth in the latter half of the 22nd century, well beyond the traditional 100-year time horizon for routine impact monitoring. The probabilities accumulate to a total impact probability of approximately 10E-3, with a pair of closely related routes to impact in 2182 comprising more than half of the total. The analysis of impact possibilities so far in the future is strongly dependent on the action of the Yarkovsky effect, which raises new challenges in the careful assessment of longer term impact hazards.
Even for asteroids with very precisely determined orbits, a future close approach to Earth can scatter the possible trajectories to the point that the problem becomes like that of a newly discovered asteroid with a weakly determined orbit. If the scattering takes place late enough so that the target plane uncertainty is dominated by Yarkovsky accelerations then the thermal properties of the asteroid, which are typically unknown, play a major role in the impact assessment. In contrast, if the strong planetary interaction takes place sooner, while the Yarkovsky dispersion is still relatively small compared to that derived from the measurements, then precise modelling of the nongravitational acceleration may be unnecessary.

Read more  (140kb, PDF)

__________________


L

Posts: 131433
Date:
Permalink  
 

Andrea Milani and his team of professional asteroid hunters have upgraded the probability that Asteroid 1999 RQ36 could hit the Earth between the years 2169 and 2199.
The asteroid, also called (101955) 1999 RQ36, is classified as an Apollo asteroid, with a diameter estimated to be about 580 meters  and an approximated mass of 1.4 x 1011 kilograms.

Read more 

__________________


L

Posts: 131433
Date:
Asteroid 1999 RQ36
Permalink  
 


An asteroid that had initially been deemed harmless has turned out to have a slim chance of hitting Earth in 160 years. While that might seem a distant threat, there's far less time available to deflect it off course.

Read more

__________________


L

Posts: 131433
Date:
Asteroid (101955) 1999 RQ36
Permalink  
 


101955 1999 RQ36
Earth Impact Risk Summary
Torino Scale (maximum)n/a
Palermo Scale (maximum)-1.52
Palermo Scale (cumulative)-1.12
Impact Probability (cumulative)7.1e-04
Number of Potential Impacts8
Vimpact12.86 km/s
Vinfinity6.36 km/s
H20.7
Diameter0.560 km
Mass1.4e+11 kg
Energy2.7e+03 MT
all above are mean values
weighted by impact probability
Analysis based on 9 radar delay, 4 Doppler, and
282 optical observations spanning 2448.8 days
(1999-Sep-11.4 to 2006-May-26.2)
 


Asteroid (101955)

101955e
Expand (239kb, 954 x 627)

Orbital elements:
1999 RQ36 PHA 0.001
Epoch 1999 Aug. 30.0 TT = JDT 2451420.5 Williams
M 294.21519 (2000.0) P Q
n 0.81560124 Peri. 64.72024 +0.39163818 -0.92011025
a 1.1345339 Node 2.23535 +0.80207228 +0.33921545
e 0.2071861 Incl. 6.00746 +0.45088756 +0.19578052
P 1.21 H 20.4 G 0.15
From 59 observations 1999 Sept. 11-14.

MPEC 1999 -R44



__________________


L

Posts: 131433
Date:
Permalink  
 

Title: Long term impact risk for (101955) 1999 RQ36
Authors: Andrea Milani, Steven R. Chesley, Maria Eugenia Sansaturio, Fabrizio Bernardi, Giovanni B. Valsecchi, Oscar Arratia

The potentially hazardous asteroid (101955) 1999 RQ36 has the possibility of collision with the Earth in the latter half of the 22nd century, well beyond the traditional 100-year time horizon for routine impact monitoring. The probabilities accumulate to a total impact probability of approximately 10E-3, with a pair of closely related routes to impact in 2182 comprising more than half of the total. The analysis of impact possibilities so far in the future is strongly dependent on the action of the Yarkovsky effect, which raises new challenges in the careful assessment of longer term impact hazards.
Even for asteroids with very precisely determined orbits, a future close approach to Earth can scatter the possible trajectories to the point that the problem becomes like that of a newly discovered asteroid with a weakly determined orbit. If the scattering takes place late enough so that the target plane uncertainty is dominated by Yarkovsky accelerations then the thermal properties of the asteroid, which are typically unknown, play a major role in the impact assessment. In contrast, if the strong planetary interaction takes place sooner, while the Yarkovsky dispersion is still relatively small compared to that derived from the measurements, then precise modelling of the nongravitational acceleration may be unnecessary.

Read more  (139kb, PDF)

See more

See OSIRIS Mission


__________________
«First  <  1 2 3 | Page of 3  sorted by
Quick Reply

Please log in to post quick replies.



Create your own FREE Forum
Report Abuse
Powered by ActiveBoard